SCP
0 0 0 0 0 0 0 0 0 -0 0 0 0 0 0 0 0 0 0 0 -0 -0 -0 -0 -0 -0 0 0 0 0 0 0 0 0 0 0 0 0 -0 -0 -0 -0 0 0 0 -0 -0 0 0
0 0 0 0 0 0 0 -0 0 0 0 0 0 0 0 0 0 0 0 0 0 0 0 -0 -0 -0 -0 0 0 0 0 0 0 0 0 0 0 -0 -0 -0 -0 -0 0 0 0 0 0 0 0
0 0 0 0 0 0 0 0 0 0 0 0 0 0 0 0 0 0 -0 0 0 0 0 -0 0 -0 -0 -0 0 0 0 0 0 0 0 0 0 -0 -0 -0 -0 -0 0 0 0 0 0 0 0
0 0 0 0 0 0 0 -0 -0 0 0 0 0 0 0 0 0 0 0 0 0 0 0 0 0 0 -0 -0 0 -0 -0 -0 0 0 0 0 -0 -0 -0 0 0 0 0 0 0 0 0 0 0
0 0 0 0 0 0 0 0 -0 0 0 0 0 0 0 0 -0 -0 -0 0 0 0 0 0 0 0 0 -0 -0 -0 -0 -0 -0 -0 -0 -0 0 0 0 0 -0 0 0 0 0 0 0 0 0
0 0 0 0 0 0 0 0 -0 -0 0 0 0 0 0 0 0 -0 -0 0 0 0 1 1 1 0 0 0 0 0 -0 -0 -0 -0 -0 -0 0 0 0 0 0 0 0 0 0 0 0 0 0
0 0 0 0 0 0 0 0 0 0 0 0 0 0 0 0 0 0 -0 -0 0 0 1 1 1 1 0 0 0 0 0 0 -0 -0 -0 -0 -0 0 0 0 0 0 0 0 0 0 0 0 0
0 0 0 0 0 0 0 0 0 0 0 0 -0 0 0 0 0 0 0 -0 0 1 1 1 1 1 1 1 0 0 0 0 0 0 0 0 0 0 0 0 0 0 0 0 0 0 0 0 0
0 0 0 0 0 0 -0 0 0 0 -0 0 0 0 0 0 0 0 0 -0 1 2 1 1 1 1 1 1 1 1 0 0 0 0 0 0 0 0 0 0 0 0 0 0 0 0 0 0 0
0 0 0 0 0 0 0 0 0 0 0 0 0 0 0 0 0 0 0 0 -0 3 1 1 1 1 0 1 1 1 1 0 0 0 0 0 0 0 0 0 0 0 0 0 0 0 0 0 0
0 0 0 0 0 0 0 0 0 0 0 0 0 0 0 0 0 0 0 0 0 0 0 0 0 1 0 1 1 1 1 0 0 0 0 0 0 0 0 0 0 0 0 0 0 0 0 0 0
0 0 0 0 0 -0 0 -0 0 0 0 0 0 0 0 0 0 0 0 0 0 0 0 0 0 0 0 1 1 0 1 0 0 0 0 0 0 0 0 0 0 0 0 0 0 0 0 0 0
0 0 0 0 0 0 0 0 0 0 0 0 0 0 0 0 0 0 0 0 0 0 0 0 1 0 0 2 2 1 0 0 0 0 0 0 0 0 0 0 0 0 0 0 0 0 0 0 0
0 0 0 0 0 0 0 0 0 0 0 0 0 0 0 0 0 0 0 0 0 0 0 0 0 2 1 2 1 0 1 0 0 0 0 0 1 0 0 0 0 0 0 0 0 0 0 0 0
0 0 0 0 0 0 0 0 0 -0 0 0 0 0 0 0 0 0 0 0 0 0 0 0 0 1 2 2 3 2 1 0 1 1 0 0 0 1 1 0 0 0 0 0 0 0 0 0 0
0 0 0 0 0 0 0 0 0 0 0 0 0 0 0 0 0 0 0 0 0 0 0 0 0 0 2 1 1 2 2 1 1 1 1 1 1 1 1 1 1 0 0 0 0 0 0 0 0
0 0 0 0 0 0 0 0 0 0 0 0 0 0 0 0 0 0 0 0 0 0 0 0 0 0 0 1 1 3 1 2 1 1 0 1 1 1 2 1 1 1 0 0 0 0 0 0 0
0 0 0 0 0 0 0 0 0 0 0 0 0 0 0 0 0 0 0 0 0 0 0 0 0 0 0 0 0 2 1 1 2 2 1 0 1 2 2 2 1 0 0 0 0 0 0 0 0
0 0 0 0 0 0 0 0 0 0 0 0 0 0 0 0 0 0 0 0 0 0 0 0 0 0 0 0 0 0 2 2 2 1 1 1 0 1 2 2 1 2 0 0 0 0 0 0 0
0 0 0 0 0 0 0 0 0 0 0 0 0 0 0 0 0 0 0 0 0 0 0 0 0 0 0 0 0 0 0 0 1 2 1 1 1 1 2 2 1 0 0 1 0 0 0 0 1
0 0 0 0 0 0 0 0 0 0 0 0 0 0 0 0 0 0 0 0 0 0 0 0 0 0 0 0 0 0 0 0 0 0 0 0 0 1 1 1 2 1 0 0 1 0 0 0 0
0 0 0 0 0 0 0 0 0 0 0 0 0 0 0 0 0 0 0 0 0 0 0 0 0 0 0 0 0 0 0 0 0 0 0 0 0 2 2 1 2 1 1 1 0 0 0 2 1
0 0 0 0 0 0 0 0 0 0 0 0 0 0 0 0 0 0 0 0 0 0 0 0 0 0 0 0 0 0 0 0 0 0 0 0 0 0 0 8 1 4 2 2 1 1 1 1 1
0 0 0 0 0 0 0 0 0 0 0 0 0 -0 0 0 0 0 0 0 0 0 0 0 0 0 0 0 0 0 0 0 0 0 0 0 0 0 0 0 4 3 3 2 1 1 1 2 1
0 0 0 0 0 0 0 0 0 0 -0 0 0 0 0 0 0 0 0 0 0 0 0 0 0 0 0 0 0 0 0 0 0 0 0 0 0 0 0 0 1 4 3 2 2 2 1 1 2
0 0 0 0 0 0 0 0 0 0 0 0 0 0 0 0 0 0 0 0 0 0 0 0 0 0 0 0 0 0 0 0 0 0 0 0 0 0 0 0 0 0 3 3 3 3 3 2 2
0 0 0 0 0 0 0 0 0 0 0 0 0 0 0 0 0 0 0 0 0 0 0 0 0 0 0 0 0 0 0 0 0 0 0 0 0 0 0 0 0 0 0 3 3 4 3 3 3
0 0 0 0 0 0 0 0 0 0 0 0 0 0 0 0 0 0 0 0 0 0 0 0 0 0 0 0 0 0 0 0 0 0 0 0 0 0 0 0 0 0 0 0 1 5 4 3 4
0 0 0 0 0 0 0 0 0 0 0 0 0 0 0 0 0 0 0 0 0 0 0 0 0 0 0 0 0 0 0 0 0 0 0 0 0 0 0 0 0 0 0 0 0 0 2 4 3
0 0 0 0 0 0 0 -0 0 0 0 0 0 0 0 0 0 0 0 0 0 0 0 0 0 0 0 0 0 0 0 0 0 0 0 0 0 0 0 0 0 0 0 0 0 0 2 3 3
Wind_Speed_500mb
18 17 12 19 5 5 9 18 13 33 2 24 25 29 44 53 16 10 20 44 27 46 63 67 65 67 64 60 55 50 45 42 41 39 37 36 34 32 29 26 23 21 19 19 20 19 19 19 19
19 16 5 9 5 1 12 33 12 12 11 27 20 32 42 21 45 43 25 23 18 43 62 70 68 69 66 62 56 51 46 42 40 37 35 34 32 30 27 24 22 19 17 16 15 15 16 16 15
24 14 6 6 7 10 13 9 14 15 27 31 14 20 23 21 30 19 18 17 10 40 60 70 71 70 68 62 56 51 46 41 38 35 32 30 28 25 23 21 18 16 13 13 11 9 9 8 9
19 6 11 3 16 20 36 22 31 43 15 10 16 20 47 28 23 16 6 9 15 31 57 68 72 70 68 63 56 51 46 42 39 35 31 28 26 24 21 18 16 14 11 9 7 4 3 3 6
15 9 3 7 16 20 28 15 20 24 23 39 11 21 44 37 30 19 19 14 20 30 53 66 70 68 65 62 57 52 47 42 38 35 31 27 24 21 18 16 13 10 9 6 2 1 1 3 4
11 6 2 7 17 25 13 41 22 39 43 38 26 24 32 30 35 23 24 32 30 35 55 67 70 69 63 59 54 50 46 41 39 35 31 27 24 20 16 13 11 8 5 2 2 4 5 6 7
8 2 11 18 27 31 21 60 24 60 51 5 28 9 25 26 27 40 12 10 28 51 44 69 72 71 67 61 56 51 46 42 38 36 33 28 23 20 16 12 10 6 4 6 6 9 9 11 11
18 3 9 13 18 28 25 36 58 21 39 43 20 6 12 32 18 32 18 7 26 51 45 62 72 73 71 67 60 55 49 44 40 37 33 30 26 22 17 15 11 8 8 11 13 14 13 15 14
38 6 11 15 21 24 52 16 41 48 59 50 21 28 26 25 18 30 55 7 10 52 48 42 68 71 70 65 62 56 51 47 42 38 35 33 29 23 19 15 14 13 14 16 18 20 18 19 19
15 13 25 19 28 32 54 34 33 20 28 37 12 48 18 8 7 23 42 13 33 49 53 36 47 65 69 64 61 58 55 50 45 40 38 35 31 26 21 19 19 20 19 21 23 23 21 20 19
38 27 22 33 52 61 57 58 54 21 10 22 30 31 50 1 12 9 21 16 28 15 35 42 34 45 68 64 56 58 56 53 48 46 42 37 33 30 26 22 21 16 16 19 25 23 19 10 11
21 46 50 53 64 58 31 51 45 34 23 49 46 33 26 20 25 14 18 5 13 8 7 40 35 24 55 60 45 41 52 51 51 49 46 43 39 35 30 26 17 13 13 12 15 11 15 13 18
24 21 53 60 68 69 64 41 38 30 33 5 40 48 21 20 31 28 4 2 11 4 18 21 37 27 31 35 30 38 34 34 51 51 50 45 41 37 33 31 26 23 22 18 20 17 15 21 23
34 37 36 48 52 57 29 30 39 64 46 52 32 41 36 28 36 42 22 13 18 6 16 20 35 36 33 35 31 23 38 27 22 40 44 42 39 39 36 33 34 33 30 27 24 27 26 25 33
42 20 23 29 28 17 30 14 28 51 31 48 30 34 41 32 31 39 46 29 29 29 9 20 33 23 35 39 50 39 21 29 39 27 26 29 28 26 28 36 38 35 35 37 38 40 36 38 46
14 15 11 15 18 33 17 23 24 60 46 45 48 78 73 69 49 46 51 50 43 43 33 14 27 29 27 25 37 57 54 40 37 41 38 34 34 31 30 35 42 38 36 42 51 50 50 53 55
10 15 20 22 24 17 16 31 26 58 39 44 32 35 66 67 61 55 52 62 65 55 58 45 29 29 24 26 26 36 70 61 60 49 49 50 45 41 41 42 42 47 44 45 46 50 49 53 53
16 14 16 28 28 28 33 42 33 55 56 57 66 48 46 62 47 31 36 61 64 56 53 58 46 47 54 28 34 32 27 58 68 70 63 60 56 55 48 36 38 43 44 50 48 52 51 47 50
29 29 31 23 19 16 17 18 28 27 14 14 24 42 51 52 52 32 36 53 47 39 46 56 49 48 54 74 42 43 47 44 43 29 44 56 46 42 38 36 36 43 38 40 52 53 52 42 45
23 14 16 27 29 30 28 29 17 8 8 19 35 39 32 37 27 37 49 50 43 42 34 34 40 42 37 52 60 43 52 53 51 56 49 37 40 50 45 46 32 42 42 54 49 54 55 44 53
12 14 14 21 30 34 27 25 18 10 8 24 50 58 53 60 61 56 55 53 46 41 37 33 29 31 39 38 35 44 42 55 63 53 54 46 36 32 42 45 43 48 75 73 57 60 52 58 60
9 15 29 27 15 9 10 20 16 13 14 20 51 66 62 67 63 65 65 59 49 41 35 31 31 27 31 37 41 43 60 53 45 33 58 75 71 48 49 54 58 57 71 92 66 61 56 66 80
16 21 16 11 19 13 19 7 17 13 19 32 22 60 66 74 74 75 72 57 38 27 22 26 26 28 28 31 32 37 48 60 77 62 43 51 61 82 46 62 79 86 85 81 75 68 63 66 76
13 11 12 11 7 20 26 13 29 27 24 33 51 54 71 64 63 69 62 49 41 26 26 27 31 30 30 27 24 24 29 34 40 53 53 50 51 52 44 62 67 73 67 76 74 68 63 64 70
14 4 9 8 9 25 28 23 21 15 22 29 44 43 52 55 59 63 49 43 35 24 32 38 39 28 28 31 29 29 29 31 28 33 36 41 47 50 61 64 50 58 65 70 72 67 63 55 66
16 18 13 9 10 11 23 11 14 19 33 55 6 48 52 67 59 53 44 39 33 31 37 42 48 37 30 32 40 42 40 38 33 36 34 37 38 36 35 50 55 60 53 46 59 68 68 55 60
11 16 8 10 3 6 8 23 18 12 15 46 12 42 48 49 50 50 47 49 41 33 31 37 42 44 38 35 42 46 40 36 41 37 35 35 41 43 47 50 51 61 61 52 51 62 68 65 64
14 17 6 5 10 11 12 10 10 5 8 34 11 8 22 25 26 28 39 46 43 35 36 45 49 47 46 42 40 41 41 37 36 30 35 43 48 46 50 49 54 57 60 65 61 62 71 72 73
10 12 6 7 8 10 11 11 4 3 7 14 13 36 13 19 21 22 25 28 32 38 44 39 39 42 39 35 34 40 41 42 45 50 54 55 53 49 54 52 56 59 58 59 66 63 71 75 77
5 8 8 5 11 6 4 23 13 6 11 6 4 8 44 43 23 30 40 32 31 31 30 36 41 41 40 41 45 51 52 49 50 46 51 52 49 53 57 62 63 64 62 61 64 68 72 73 83
Wind_Direction_500mb
329 345 341 311 37 104 247 259 259 276 250 56 44 71 77 46 53 97 168 175 159 162 154 151 150 148 148 147 146 144 141 136 132 130 129 126 121 119 119 117 112 106 99 91 85 83 81 73 71
329 344 339 273 126 324 264 245 309 333 83 78 54 58 75 64 78 70 103 144 139 166 158 154 155 152 153 153 153 150 147 144 140 139 136 131 128 125 122 118 113 107 100 90 83 80 76 73 71
326 326 307 169 219 206 245 221 332 14 37 20 37 31 73 112 69 71 43 146 160 173 165 159 159 158 158 159 160 157 154 151 148 146 143 137 133 128 124 120 114 110 106 98 91 81 76 76 75
339 352 257 126 264 256 262 307 353 322 51 77 2 83 83 84 88 90 117 160 193 182 173 165 164 165 163 163 166 164 163 160 156 154 152 147 142 138 134 130 126 121 114 104 97 90 65 44 51
298 280 295 252 252 264 269 286 330 312 320 11 62 65 78 69 66 74 123 235 212 191 183 173 170 171 170 168 169 171 169 168 165 163 161 158 154 150 145 144 142 137 131 118 118 134 356 332 355
283 219 304 270 271 261 268 270 344 319 300 24 13 81 59 59 48 17 4 175 238 204 187 180 176 175 177 176 176 177 177 176 172 171 171 168 166 164 163 165 167 166 158 176 233 282 286 299 311
215 336 245 253 264 276 279 183 242 287 293 314 358 74 58 55 40 24 28 202 234 196 186 187 182 181 179 182 183 184 185 183 182 180 177 179 180 180 183 192 196 198 239 270 275 280 292 295 301
239 135 273 264 279 284 286 177 189 202 286 278 292 80 26 41 48 33 30 344 179 203 186 194 189 188 185 186 188 189 191 191 190 189 187 187 190 194 197 211 221 233 257 274 280 283 292 291 295
246 226 237 249 267 275 292 318 205 185 207 263 253 260 75 56 70 21 21 111 179 198 185 192 199 196 193 190 192 194 197 198 199 196 196 198 199 204 212 225 239 252 267 276 278 282 292 301 306
216 236 236 232 255 270 277 277 271 260 186 214 228 233 218 127 87 19 22 21 69 193 184 192 201 210 204 199 198 199 201 203 203 205 206 209 209 212 220 232 246 253 263 273 277 285 292 307 314
237 241 249 254 246 245 262 276 276 172 200 192 228 273 254 272 182 45 51 27 52 79 213 195 209 216 215 210 205 208 209 208 209 210 212 217 222 224 228 235 237 246 266 284 278 286 290 291 297
231 235 240 253 259 265 263 277 289 229 188 214 225 236 224 178 171 180 18 53 289 28 143 203 204 206 212 219 215 222 221 221 217 217 218 220 224 232 241 251 260 258 264 299 291 297 270 266 282
250 249 248 249 248 258 267 269 275 281 206 139 225 226 214 197 187 193 228 30 268 263 99 169 198 188 178 200 216 239 239 242 238 228 228 226 230 234 238 249 256 265 267 276 290 291 281 279 296
273 278 269 267 260 251 245 267 268 271 217 226 222 241 246 217 206 204 213 227 233 346 176 153 175 188 180 197 201 224 236 234 237 235 237 237 238 239 243 243 246 261 266 271 281 286 292 301 299
284 291 297 286 284 272 287 293 273 274 252 209 181 213 241 217 211 227 222 225 223 226 234 225 195 176 197 208 219 213 223 226 236 237 245 244 240 246 244 241 238 244 255 263 270 272 277 285 287
318 304 277 288 283 277 257 259 271 278 264 190 213 208 225 235 232 229 233 224 228 234 241 250 231 226 248 255 239 223 223 197 202 223 235 239 247 247 251 249 253 254 250 247 249 258 263 272 279
266 257 274 275 248 245 223 252 242 256 262 268 234 227 209 218 229 225 225 225 230 224 244 240 229 241 241 234 272 231 235 222 218 210 220 240 241 247 257 261 264 267 262 260 260 260 261 264 273
259 253 250 250 259 253 240 246 241 230 232 240 257 260 254 222 197 201 221 226 227 230 218 230 226 232 241 238 220 237 226 234 236 236 228 227 240 249 252 256 265 264 264 265 255 257 263 264 274
249 262 274 294 316 328 291 295 252 223 197 227 246 242 251 232 204 197 203 210 208 210 215 215 228 213 208 223 233 258 257 238 232 230 235 238 241 242 252 253 264 264 274 286 267 255 259 262 268
284 307 309 315 318 308 298 287 279 220 208 265 284 288 192 181 188 185 195 196 200 200 210 220 216 213 204 206 214 226 241 246 240 237 232 230 233 241 251 258 281 290 277 293 275 261 250 244 271
290 301 295 270 280 284 292 293 281 251 266 280 273 268 231 196 185 189 197 210 212 207 211 219 223 225 221 220 211 213 224 248 240 230 237 225 227 247 261 263 274 283 292 287 279 268 244 240 255
282 277 283 289 306 256 323 287 293 300 268 250 253 252 253 209 196 202 206 206 205 200 204 219 236 241 236 231 226 226 228 231 247 251 238 240 241 250 258 273 268 267 269 277 271 258 245 246 251
267 271 275 326 315 321 289 302 282 283 280 279 267 250 236 220 210 203 200 189 172 180 201 228 242 245 251 258 249 244 241 231 238 257 253 247 260 257 285 277 265 265 263 268 267 259 249 251 255
291 316 330 323 304 282 271 246 278 274 275 273 276 275 231 215 190 189 179 169 168 179 207 215 232 257 261 255 253 245 241 234 234 238 249 259 244 240 251 255 249 253 254 260 266 266 267 272 264
220 334 308 298 272 254 258 258 245 307 296 284 274 245 149 150 147 149 158 175 186 216 216 223 225 233 262 262 275 271 261 261 242 252 250 250 253 247 223 231 240 245 247 250 259 263 267 270 263
226 192 213 251 234 270 310 248 238 255 301 304 88 135 137 141 144 154 166 186 198 220 223 224 225 229 233 263 280 282 281 280 281 269 265 261 264 265 256 251 244 245 253 253 261 264 265 268 268
306 257 265 305 28 337 270 283 290 285 3 322 118 137 142 145 163 173 191 189 190 206 217 225 225 224 225 243 265 266 270 274 284 285 278 272 271 271 269 268 258 255 248 248 251 261 264 269 273
174 224 291 98 227 231 228 251 250 303 309 217 316 109 123 131 143 163 173 188 206 218 228 233 231 237 245 247 256 255 252 270 273 273 279 283 282 279 275 270 267 264 257 254 249 251 260 267 267
293 269 305 307 251 201 274 249 136 9 14 84 96 280 142 156 178 201 233 248 243 245 242 224 231 241 240 239 242 235 245 255 259 267 276 281 278 281 282 279 276 272 267 259 256 249 255 261 264
192 190 86 261 277 307 319 263 358 344 322 69 154 320 341 349 317 241 236 228 231 236 226 226 234 238 241 247 250 252 257 260 260 265 279 287 283 278 279 279 279 276 274 269 264 254 252 259 259
Wind_Speed_850mb
18 17 12 19 5 5 9 18 13 33 2 24 25 29 44 53 16 10 20 44 27 46 63 67 65 67 64 60 55 50 45 42 41 39 37 36 34 32 29 26 23 21 19 19 20 19 19 19 19
19 16 5 9 5 1 12 33 12 12 11 27 20 32 42 21 45 43 25 23 18 43 62 70 68 69 66 62 56 51 46 42 40 37 35 34 32 30 27 24 22 19 17 16 15 15 16 16 15
24 14 6 6 7 10 13 9 14 15 27 31 14 20 23 21 30 19 18 17 10 40 60 70 71 70 68 62 56 51 46 41 38 35 32 30 28 25 23 21 18 16 13 13 11 9 9 8 9
19 6 11 3 16 20 36 22 31 43 15 10 16 20 47 28 23 16 6 9 15 31 57 68 72 70 68 63 56 51 46 42 39 35 31 28 26 24 21 18 16 14 11 9 7 4 3 3 6
15 9 3 7 16 20 28 15 20 24 23 39 11 21 44 37 30 19 19 14 20 30 53 66 70 68 65 62 57 52 47 42 38 35 31 27 24 21 18 16 13 10 9 6 2 1 1 3 4
11 6 2 7 17 25 13 41 22 39 43 38 26 24 32 30 35 23 24 32 30 35 55 67 70 69 63 59 54 50 46 41 39 35 31 27 24 20 16 13 11 8 5 2 2 4 5 6 7
8 2 11 18 27 31 21 60 24 60 51 5 28 9 25 26 27 40 12 10 28 51 44 69 72 71 67 61 56 51 46 42 38 36 33 28 23 20 16 12 10 6 4 6 6 9 9 11 11
18 3 9 13 18 28 25 36 58 21 39 43 20 6 12 32 18 32 18 7 26 51 45 62 72 73 71 67 60 55 49 44 40 37 33 30 26 22 17 15 11 8 8 11 13 14 13 15 14
38 6 11 15 21 24 52 16 41 48 59 50 21 28 26 25 18 30 55 7 10 52 48 42 68 71 70 65 62 56 51 47 42 38 35 33 29 23 19 15 14 13 14 16 18 20 18 19 19
15 13 25 19 28 32 54 34 33 20 28 37 12 48 18 8 7 23 42 13 33 49 53 36 47 65 69 64 61 58 55 50 45 40 38 35 31 26 21 19 19 20 19 21 23 23 21 20 19
38 27 22 33 52 61 57 58 54 21 10 22 30 31 50 1 12 9 21 16 28 15 35 42 34 45 68 64 56 58 56 53 48 46 42 37 33 30 26 22 21 16 16 19 25 23 19 10 11
21 46 50 53 64 58 31 51 45 34 23 49 46 33 26 20 25 14 18 5 13 8 7 40 35 24 55 60 45 41 52 51 51 49 46 43 39 35 30 26 17 13 13 12 15 11 15 13 18
24 21 53 60 68 69 64 41 38 30 33 5 40 48 21 20 31 28 4 2 11 4 18 21 37 27 31 35 30 38 34 34 51 51 50 45 41 37 33 31 26 23 22 18 20 17 15 21 23
34 37 36 48 52 57 29 30 39 64 46 52 32 41 36 28 36 42 22 13 18 6 16 20 35 36 33 35 31 23 38 27 22 40 44 42 39 39 36 33 34 33 30 27 24 27 26 25 33
42 20 23 29 28 17 30 14 28 51 31 48 30 34 41 32 31 39 46 29 29 29 9 20 33 23 35 39 50 39 21 29 39 27 26 29 28 26 28 36 38 35 35 37 38 40 36 38 46
14 15 11 15 18 33 17 23 24 60 46 45 48 78 73 69 49 46 51 50 43 43 33 14 27 29 27 25 37 57 54 40 37 41 38 34 34 31 30 35 42 38 36 42 51 50 50 53 55
10 15 20 22 24 17 16 31 26 58 39 44 32 35 66 67 61 55 52 62 65 55 58 45 29 29 24 26 26 36 70 61 60 49 49 50 45 41 41 42 42 47 44 45 46 50 49 53 53
16 14 16 28 28 28 33 42 33 55 56 57 66 48 46 62 47 31 36 61 64 56 53 58 46 47 54 28 34 32 27 58 68 70 63 60 56 55 48 36 38 43 44 50 48 52 51 47 50
29 29 31 23 19 16 17 18 28 27 14 14 24 42 51 52 52 32 36 53 47 39 46 56 49 48 54 74 42 43 47 44 43 29 44 56 46 42 38 36 36 43 38 40 52 53 52 42 45
23 14 16 27 29 30 28 29 17 8 8 19 35 39 32 37 27 37 49 50 43 42 34 34 40 42 37 52 60 43 52 53 51 56 49 37 40 50 45 46 32 42 42 54 49 54 55 44 53
12 14 14 21 30 34 27 25 18 10 8 24 50 58 53 60 61 56 55 53 46 41 37 33 29 31 39 38 35 44 42 55 63 53 54 46 36 32 42 45 43 48 75 73 57 60 52 58 60
9 15 29 27 15 9 10 20 16 13 14 20 51 66 62 67 63 65 65 59 49 41 35 31 31 27 31 37 41 43 60 53 45 33 58 75 71 48 49 54 58 57 71 92 66 61 56 66 80
16 21 16 11 19 13 19 7 17 13 19 32 22 60 66 74 74 75 72 57 38 27 22 26 26 28 28 31 32 37 48 60 77 62 43 51 61 82 46 62 79 86 85 81 75 68 63 66 76
13 11 12 11 7 20 26 13 29 27 24 33 51 54 71 64 63 69 62 49 41 26 26 27 31 30 30 27 24 24 29 34 40 53 53 50 51 52 44 62 67 73 67 76 74 68 63 64 70
14 4 9 8 9 25 28 23 21 15 22 29 44 43 52 55 59 63 49 43 35 24 32 38 39 28 28 31 29 29 29 31 28 33 36 41 47 50 61 64 50 58 65 70 72 67 63 55 66
16 18 13 9 10 11 23 11 14 19 33 55 6 48 52 67 59 53 44 39 33 31 37 42 48 37 30 32 40 42 40 38 33 36 34 37 38 36 35 50 55 60 53 46 59 68 68 55 60
11 16 8 10 3 6 8 23 18 12 15 46 12 42 48 49 50 50 47 49 41 33 31 37 42 44 38 35 42 46 40 36 41 37 35 35 41 43 47 50 51 61 61 52 51 62 68 65 64
14 17 6 5 10 11 12 10 10 5 8 34 11 8 22 25 26 28 39 46 43 35 36 45 49 47 46 42 40 41 41 37 36 30 35 43 48 46 50 49 54 57 60 65 61 62 71 72 73
10 12 6 7 8 10 11 11 4 3 7 14 13 36 13 19 21 22 25 28 32 38 44 39 39 42 39 35 34 40 41 42 45 50 54 55 53 49 54 52 56 59 58 59 66 63 71 75 77
5 8 8 5 11 6 4 23 13 6 11 6 4 8 44 43 23 30 40 32 31 31 30 36 41 41 40 41 45 51 52 49 50 46 51 52 49 53 57 62 63 64 62 61 64 68 72 73 83
Wind_Direction_850mb
329 345 341 311 37 104 247 259 259 276 250 56 44 71 77 46 53 97 168 175 159 162 154 151 150 148 148 147 146 144 141 136 132 130 129 126 121 119 119 117 112 106 99 91 85 83 81 73 71
329 344 339 273 126 324 264 245 309 333 83 78 54 58 75 64 78 70 103 144 139 166 158 154 155 152 153 153 153 150 147 144 140 139 136 131 128 125 122 118 113 107 100 90 83 80 76 73 71
326 326 307 169 219 206 245 221 332 14 37 20 37 31 73 112 69 71 43 146 160 173 165 159 159 158 158 159 160 157 154 151 148 146 143 137 133 128 124 120 114 110 106 98 91 81 76 76 75
339 352 257 126 264 256 262 307 353 322 51 77 2 83 83 84 88 90 117 160 193 182 173 165 164 165 163 163 166 164 163 160 156 154 152 147 142 138 134 130 126 121 114 104 97 90 65 44 51
298 280 295 252 252 264 269 286 330 312 320 11 62 65 78 69 66 74 123 235 212 191 183 173 170 171 170 168 169 171 169 168 165 163 161 158 154 150 145 144 142 137 131 118 118 134 356 332 355
283 219 304 270 271 261 268 270 344 319 300 24 13 81 59 59 48 17 4 175 238 204 187 180 176 175 177 176 176 177 177 176 172 171 171 168 166 164 163 165 167 166 158 176 233 282 286 299 311
215 336 245 253 264 276 279 183 242 287 293 314 358 74 58 55 40 24 28 202 234 196 186 187 182 181 179 182 183 184 185 183 182 180 177 179 180 180 183 192 196 198 239 270 275 280 292 295 301
239 135 273 264 279 284 286 177 189 202 286 278 292 80 26 41 48 33 30 344 179 203 186 194 189 188 185 186 188 189 191 191 190 189 187 187 190 194 197 211 221 233 257 274 280 283 292 291 295
246 226 237 249 267 275 292 318 205 185 207 263 253 260 75 56 70 21 21 111 179 198 185 192 199 196 193 190 192 194 197 198 199 196 196 198 199 204 212 225 239 252 267 276 278 282 292 301 306
216 236 236 232 255 270 277 277 271 260 186 214 228 233 218 127 87 19 22 21 69 193 184 192 201 210 204 199 198 199 201 203 203 205 206 209 209 212 220 232 246 253 263 273 277 285 292 307 314
237 241 249 254 246 245 262 276 276 172 200 192 228 273 254 272 182 45 51 27 52 79 213 195 209 216 215 210 205 208 209 208 209 210 212 217 222 224 228 235 237 246 266 284 278 286 290 291 297
231 235 240 253 259 265 263 277 289 229 188 214 225 236 224 178 171 180 18 53 289 28 143 203 204 206 212 219 215 222 221 221 217 217 218 220 224 232 241 251 260 258 264 299 291 297 270 266 282
250 249 248 249 248 258 267 269 275 281 206 139 225 226 214 197 187 193 228 30 268 263 99 169 198 188 178 200 216 239 239 242 238 228 228 226 230 234 238 249 256 265 267 276 290 291 281 279 296
273 278 269 267 260 251 245 267 268 271 217 226 222 241 246 217 206 204 213 227 233 346 176 153 175 188 180 197 201 224 236 234 237 235 237 237 238 239 243 243 246 261 266 271 281 286 292 301 299
284 291 297 286 284 272 287 293 273 274 252 209 181 213 241 217 211 227 222 225 223 226 234 225 195 176 197 208 219 213 223 226 236 237 245 244 240 246 244 241 238 244 255 263 270 272 277 285 287
318 304 277 288 283 277 257 259 271 278 264 190 213 208 225 235 232 229 233 224 228 234 241 250 231 226 248 255 239 223 223 197 202 223 235 239 247 247 251 249 253 254 250 247 249 258 263 272 279
266 257 274 275 248 245 223 252 242 256 262 268 234 227 209 218 229 225 225 225 230 224 244 240 229 241 241 234 272 231 235 222 218 210 220 240 241 247 257 261 264 267 262 260 260 260 261 264 273
259 253 250 250 259 253 240 246 241 230 232 240 257 260 254 222 197 201 221 226 227 230 218 230 226 232 241 238 220 237 226 234 236 236 228 227 240 249 252 256 265 264 264 265 255 257 263 264 274
249 262 274 294 316 328 291 295 252 223 197 227 246 242 251 232 204 197 203 210 208 210 215 215 228 213 208 223 233 258 257 238 232 230 235 238 241 242 252 253 264 264 274 286 267 255 259 262 268
284 307 309 315 318 308 298 287 279 220 208 265 284 288 192 181 188 185 195 196 200 200 210 220 216 213 204 206 214 226 241 246 240 237 232 230 233 241 251 258 281 290 277 293 275 261 250 244 271
290 301 295 270 280 284 292 293 281 251 266 280 273 268 231 196 185 189 197 210 212 207 211 219 223 225 221 220 211 213 224 248 240 230 237 225 227 247 261 263 274 283 292 287 279 268 244 240 255
282 277 283 289 306 256 323 287 293 300 268 250 253 252 253 209 196 202 206 206 205 200 204 219 236 241 236 231 226 226 228 231 247 251 238 240 241 250 258 273 268 267 269 277 271 258 245 246 251
267 271 275 326 315 321 289 302 282 283 280 279 267 250 236 220 210 203 200 189 172 180 201 228 242 245 251 258 249 244 241 231 238 257 253 247 260 257 285 277 265 265 263 268 267 259 249 251 255
291 316 330 323 304 282 271 246 278 274 275 273 276 275 231 215 190 189 179 169 168 179 207 215 232 257 261 255 253 245 241 234 234 238 249 259 244 240 251 255 249 253 254 260 266 266 267 272 264
220 334 308 298 272 254 258 258 245 307 296 284 274 245 149 150 147 149 158 175 186 216 216 223 225 233 262 262 275 271 261 261 242 252 250 250 253 247 223 231 240 245 247 250 259 263 267 270 263
226 192 213 251 234 270 310 248 238 255 301 304 88 135 137 141 144 154 166 186 198 220 223 224 225 229 233 263 280 282 281 280 281 269 265 261 264 265 256 251 244 245 253 253 261 264 265 268 268
306 257 265 305 28 337 270 283 290 285 3 322 118 137 142 145 163 173 191 189 190 206 217 225 225 224 225 243 265 266 270 274 284 285 278 272 271 271 269 268 258 255 248 248 251 261 264 269 273
174 224 291 98 227 231 228 251 250 303 309 217 316 109 123 131 143 163 173 188 206 218 228 233 231 237 245 247 256 255 252 270 273 273 279 283 282 279 275 270 267 264 257 254 249 251 260 267 267
293 269 305 307 251 201 274 249 136 9 14 84 96 280 142 156 178 201 233 248 243 245 242 224 231 241 240 239 242 235 245 255 259 267 276 281 278 281 282 279 276 272 267 259 256 249 255 261 264
192 190 86 261 277 307 319 263 358 344 322 69 154 320 341 349 317 241 236 228 231 236 226 226 234 238 241 247 250 252 257 260 260 265 279 287 283 278 279 279 279 276 274 269 264 254 252 259 259